Zurück zum Katalog

ONEWEB-0592

AktivKommunikationPO
NORAD 54658·PAYLOAD·🇬🇧 United Kingdom

Gestartet Dec 8, 2022 von Cape Canaveral Space Force Station

Loading…

Nächste Überflüge (nächste 24 Stunden)

TLE

AktuellSource: CelesTrak SupGP

Epoche: Sep 14, 2026, 11:54 UTC

1 54658C 22166S   26257.49635833 -.00002321  00000+0 -56266-2 0  2571
2 54658  87.9280 226.1916 0002114  83.5473 338.9343 13.21826176    10

Verfolge ONEWEB-0592 in Echtzeit mit AllMySat

Download on the App Store